| time (UTC) | temp C | wind direction | speed KPH | gust KPH | rain 1hr cm | rain 24hr cm | rain mn cm | humidity % | barometer mb |
| 20260902055524 | 11 | 180 | 0.0 | 1.6 | 0.00 | 0.00 | 0.00 | 89 | 1024.4 |
| 20260902054525 | 11 | 180 | 0.0 | 0.0 | 0.00 | 0.00 | 0.00 | 88 | 1024.4 |
| 20260902053525 | 11 | 180 | 0.0 | 0.0 | 0.00 | 0.00 | 0.00 | 89 | 1024.2 |
| 20260902052525 | 11 | 180 | 0.0 | 0.0 | 0.00 | 0.00 | 0.00 | 89 | 1024.1 |
| 20260902050525 | 11 | 180 | 0.0 | 0.0 | 0.00 | 0.00 | 0.00 | 89 | 1024.0 |
| 20260902045523 | 11 | 180 | 0.0 | 0.0 | 0.00 | 0.00 | 0.00 | 89 | 1024.0 |
| 20260902044523 | 11 | 180 | 0.0 | 0.0 | 0.00 | 0.00 | 0.00 | 89 | 1023.8 |
| 20260902043523 | 12 | 180 | 0.0 | 0.0 | 0.00 | 0.00 | 0.00 | 89 | 1023.9 |
| 20260902042524 | 12 | 180 | 0.0 | 0.0 | 0.00 | 0.00 | 0.00 | 89 | 1023.7 |
| 20260902041624 | 12 | 180 | 0.0 | 0.0 | 0.00 | 0.00 | 0.00 | 87 | 1023.6 |
| 20260902040722 | 12 | 180 | 0.0 | 1.6 | 0.00 | 0.00 | 0.00 | 87 | 1023.5 |
| 20260902035811 | 12 | 180 | 0.0 | 0.0 | 0.00 | 0.00 | 0.00 | 88 | 1023.4 |
| 20260902034907 | 12 | 180 | 0.0 | 0.0 | 0.00 | 0.00 | 0.00 | 88 | 1023.4 |
| 20260902034007 | 12 | 180 | 0.0 | 0.0 | 0.00 | 0.00 | 0.00 | 88 | 1023.3 |
| 20260902033009 | 12 | 180 | 0.0 | 0.0 | 0.00 | 0.00 | 0.00 | 87 | 1023.1 |
| 20260902032010 | 12 | 180 | 0.0 | 0.0 | 0.00 | 0.00 | 0.00 | 87 | 1023.1 |
| 20260902031009 | 12 | 180 | 0.0 | 0.0 | 0.00 | 0.00 | 0.00 | 87 | 1023.1 |
| 20260902030010 | 12 | 180 | 0.0 | 0.0 | 0.00 | 0.00 | 0.00 | 85 | 1023.1 |
| 20260902025107 | 12 | 180 | 0.0 | 0.0 | 0.00 | 0.00 | 0.00 | 86 | 1023.2 |
| 20260902024110 | 12 | 180 | 0.0 | 0.0 | 0.00 | 0.00 | 0.00 | 85 | 1023.0 |
| 20260902023109 | 12 | 180 | 0.0 | 0.0 | 0.00 | 0.00 | 0.00 | 85 | 1022.9 |
| 20260902022108 | 12 | 180 | 0.0 | 0.0 | 0.00 | 0.00 | 0.00 | 85 | 1023.0 |
| 20260902021108 | 12 | 180 | 0.0 | 0.0 | 0.00 | 0.00 | 0.00 | 85 | 1022.9 |
| 20260902020110 | 13 | 180 | 0.0 | 0.0 | 0.00 | 0.00 | 0.00 | 84 | 1022.8 |
| 20260902015110 | 13 | 180 | 0.0 | 0.0 | 0.00 | 0.00 | 0.00 | 82 | 1022.9 |
| 20260902014109 | 13 | 180 | 0.0 | 0.0 | 0.00 | 0.00 | 0.00 | 82 | 1022.8 |
| 20260902013110 | 13 | 180 | 0.0 | 0.0 | 0.00 | 0.00 | 0.00 | 81 | 1022.8 |
| 20260902012109 | 13 | 180 | 0.0 | 0.0 | 0.00 | 0.00 | 0.00 | 81 | 1022.8 |
| 20260902011111 | 13 | 180 | 0.0 | 0.0 | 0.00 | 0.00 | 0.00 | 80 | 1022.8 |
| 20260902010109 | 13 | 180 | 0.0 | 0.0 | 0.00 | 0.00 | 0.00 | 80 | 1022.8 |
| 20260902005108 | 14 | 180 | 0.0 | 0.0 | 0.00 | 0.00 | 0.00 | 79 | 1022.6 |
| 20260902004107 | 14 | 180 | 0.0 | 0.0 | 0.00 | 0.00 | 0.00 | 78 | 1022.8 |
| 20260902002208 | 14 | 180 | 0.0 | 0.0 | 0.00 | 0.00 | 0.00 | 78 | 1022.8 |
| 20260902001209 | 14 | 180 | 0.0 | 0.0 | 0.00 | 0.00 | 0.00 | 77 | 1022.8 |
| 20260902000211 | 15 | 180 | 0.0 | 0.0 | 0.00 | 0.00 | 0.00 | 76 | 1022.6 |
| 20260901235209 | 15 | 180 | 0.0 | 0.0 | 0.00 | 0.00 | 0.00 | 75 | 1022.6 |
| 20260901234308 | 16 | 180 | 0.0 | 0.0 | 0.00 | 0.00 | 0.00 | 74 | 1022.5 |
| 20260901233309 | 16 | 180 | 0.0 | 0.0 | 0.00 | 0.00 | 0.00 | 72 | 1022.5 |
| 20260901232310 | 16 | 180 | 0.0 | 0.0 | 0.00 | 0.00 | 0.00 | 72 | 1022.3 |
| 20260901231309 | 17 | 180 | 0.0 | 0.0 | 0.00 | 0.00 | 0.00 | 70 | 1022.1 |
| 20260901230310 | 17 | 180 | 0.0 | 0.0 | 0.00 | 0.00 | 0.00 | 70 | 1022.0 |
| 20260901224408 | 18 | 180 | 0.0 | 0.0 | 0.00 | 0.00 | 0.00 | 66 | 1021.8 |
| 20260901223409 | 19 | 180 | 0.0 | 0.0 | 0.00 | 0.00 | 0.00 | 64 | 1021.8 |
| 20260901221510 | 20 | 180 | 0.0 | 0.0 | 0.00 | 0.00 | 0.00 | 63 | 1021.7 |
| 20260901220608 | 20 | 180 | 0.0 | 0.0 | 0.00 | 0.00 | 0.00 | 61 | 1021.6 |
| 20260901215609 | 20 | 180 | 0.0 | 1.6 | 0.00 | 0.00 | 0.00 | 60 | 1021.5 |
| 20260901214610 | 21 | 180 | 1.6 | 3.2 | 0.00 | 0.00 | 0.00 | 58 | 1021.3 |
| 20260901213609 | 21 | 180 | 0.0 | 0.0 | 0.00 | 0.00 | 0.00 | 56 | 1021.2 |
| 20260901212610 | 21 | 180 | 0.0 | 3.2 | 0.00 | 0.00 | 0.00 | 55 | 1021.2 |
| 20260901211608 | 21 | 180 | 0.0 | 4.8 | 0.00 | 0.00 | 0.00 | 56 | 1021.1 |
| 20260901210609 | 21 | 180 | 1.6 | 6.4 | 0.00 | 0.00 | 0.00 | 55 | 1021.0 |
| 20260901205608 | 21 | 183 | 3.2 | 6.4 | 0.00 | 0.00 | 0.00 | 55 | 1021.0 |
| 20260901204608 | 21 | 180 | 3.2 | 9.7 | 0.00 | 0.00 | 0.00 | 54 | 1020.9 |
| 20260901203608 | 21 | 184 | 4.8 | 9.7 | 0.00 | 0.00 | 0.00 | 53 | 1021.0 |
| 20260901202609 | 21 | 180 | 3.2 | 8.0 | 0.00 | 0.00 | 0.00 | 53 | 1020.9 |
| 20260901201609 | 21 | 180 | 6.4 | 8.0 | 0.00 | 0.00 | 0.00 | 54 | 1020.9 |
| 20260901200609 | 21 | 180 | 4.8 | 9.7 | 0.00 | 0.00 | 0.00 | 53 | 1021.0 |
| 20260901195609 | 21 | 181 | 4.8 | 11.3 | 0.00 | 0.00 | 0.00 | 54 | 1020.9 |
| 20260901194708 | 21 | 180 | 6.4 | 12.9 | 0.00 | 0.00 | 0.00 | 54 | 1021.0 |
| 20260901192708 | 21 | 180 | 3.2 | 8.0 | 0.00 | 0.00 | 0.00 | 52 | 1020.9 |
| 20260901192609 | 22 | 195 | 1.6 | 8.0 | 0.00 | 0.00 | 0.00 | 53 | 1021.0 |
| 20260901191609 | 22 | 180 | 3.2 | 6.4 | 0.00 | 0.00 | 0.00 | 53 | 1021.0 |
| 20260901190707 | 22 | 180 | 3.2 | 12.9 | 0.00 | 0.00 | 0.00 | 53 | 1021.0 |
| 20260901185708 | 22 | 187 | 3.2 | 11.3 | 0.00 | 0.00 | 0.00 | 53 | 1020.8 |
| 20260901184709 | 22 | 185 | 8.0 | 17.7 | 0.00 | 0.00 | 0.00 | 53 | 1020.7 |
| 20260901183711 | 22 | 184 | 3.2 | 9.7 | 0.00 | 0.00 | 0.00 | 54 | 1020.8 |
| 20260901182808 | 22 | 180 | 6.4 | 12.9 | 0.00 | 0.00 | 0.00 | 54 | 1020.7 |
| 20260901180908 | 22 | 192 | 1.6 | 4.8 | 0.00 | 0.00 | 0.00 | 56 | 1020.9 |
| 20260901174106 | 21 | 189 | 3.2 | 8.0 | 0.00 | 0.00 | 0.00 | 59 | 1020.9 |
| 20260901173111 | 22 | 184 | 4.8 | 9.7 | 0.00 | 0.00 | 0.00 | 57 | 1021.0 |
| 20260901172109 | 22 | 203 | 1.6 | 6.4 | 0.00 | 0.00 | 0.00 | 57 | 1020.9 |
| 20260901171207 | 22 | 222 | 3.2 | 14.5 | 0.00 | 0.00 | 0.00 | 59 | 1020.9 |
| 20260901165208 | 21 | 184 | 4.8 | 11.3 | 0.00 | 0.00 | 0.00 | 62 | 1020.9 |
| 20260901164209 | 21 | 193 | 3.2 | 8.0 | 0.00 | 0.00 | 0.00 | 61 | 1020.9 |
| 20260901163209 | 22 | 180 | 0.0 | 1.6 | 0.00 | 0.00 | 0.00 | 61 | 1020.7 |
| 20260901162308 | 21 | 201 | 1.6 | 4.8 | 0.00 | 0.00 | 0.00 | 62 | 1020.8 |
| 20260901161308 | 21 | 180 | 3.2 | 11.3 | 0.00 | 0.00 | 0.00 | 63 | 1020.9 |
| 20260901160309 | 21 | 210 | 3.2 | 4.8 | 0.00 | 0.00 | 0.00 | 62 | 1021.0 |
| 20260901155406 | 21 | 187 | 3.2 | 8.0 | 0.00 | 0.00 | 0.00 | 61 | 1021.0 |
| 20260901154408 | 22 | 192 | 3.2 | 9.7 | 0.00 | 0.00 | 0.00 | 60 | 1020.9 |
| 20260901153409 | 21 | 180 | 3.2 | 6.4 | 0.00 | 0.00 | 0.00 | 59 | 1021.0 |
| 20260901151508 | 22 | 189 | 3.2 | 6.4 | 0.00 | 0.00 | 0.00 | 59 | 1021.1 |
| 20260901150510 | 21 | 180 | 1.6 | 4.8 | 0.00 | 0.00 | 0.00 | 59 | 1021.2 |
| 20260901145509 | 21 | 180 | 3.2 | 8.0 | 0.00 | 0.00 | 0.00 | 61 | 1021.1 |
| 20260901144508 | 21 | 180 | 3.2 | 6.4 | 0.00 | 0.00 | 0.00 | 61 | 1021.2 |
| 20260901143509 | 20 | 234 | 4.8 | 9.7 | 0.00 | 0.00 | 0.00 | 64 | 1021.3 |
| 20260901142607 | 20 | 236 | 1.6 | 4.8 | 0.00 | 0.00 | 0.00 | 65 | 1021.4 |
| 20260901141608 | 20 | 225 | 4.8 | 6.4 | 0.00 | 0.00 | 0.00 | 63 | 1021.4 |
| 20260901140609 | 20 | 180 | 4.8 | 8.0 | 0.00 | 0.00 | 0.00 | 64 | 1021.3 |
| 20260901135707 | 19 | 185 | 4.8 | 6.4 | 0.00 | 0.00 | 0.00 | 65 | 1021.4 |
| 20260901134708 | 19 | 225 | 6.4 | 8.0 | 0.00 | 0.00 | 0.00 | 67 | 1021.2 |
| 20260901133807 | 19 | 180 | 1.6 | 3.2 | 0.00 | 0.00 | 0.00 | 68 | 1021.1 |
| 20260901130909 | 18 | 180 | 0.0 | 1.6 | 0.00 | 0.00 | 0.00 | 67 | 1021.0 |
| 20260901125911 | 18 | 180 | 3.2 | 4.8 | 0.00 | 0.00 | 0.00 | 69 | 1021.0 |
| 20260901124910 | 18 | 225 | 0.0 | 0.0 | 0.00 | 0.00 | 0.00 | 71 | 1020.9 |
| 20260901123910 | 18 | 217 | 0.0 | 0.0 | 0.00 | 0.00 | 0.00 | 73 | 1020.8 |
| 20260901122909 | 17 | 180 | 0.0 | 1.6 | 0.00 | 0.00 | 0.00 | 75 | 1021.0 |
| 20260901121908 | 16 | 180 | 0.0 | 0.0 | 0.00 | 0.00 | 0.00 | 79 | 1021.0 |
| 20260901120907 | 15 | 180 | 0.0 | 1.6 | 0.00 | 0.00 | 0.00 | 83 | 1020.9 |
| 20260901115909 | 14 | 180 | 0.0 | 0.0 | 0.00 | 0.00 | 0.00 | 83 | 1021.0 |
| 20260901115008 | 13 | 180 | 0.0 | 0.0 | 0.00 | 0.00 | 0.00 | 84 | 1020.7 |
| 20260901114009 | 13 | 180 | 0.0 | 1.6 | 0.00 | 0.00 | 0.00 | 85 | 1020.8 |
| 20260901113010 | 13 | 180 | 0.0 | 3.2 | 0.00 | 0.00 | 0.00 | 87 | 1020.9 |
| 20260901112108 | 12 | 180 | 0.0 | 3.2 | 0.00 | 0.00 | 0.00 | 88 | 1020.7 |
| 20260901111109 | 12 | 180 | 0.0 | 1.6 | 0.00 | 0.00 | 0.00 | 91 | 1020.7 |
| 20260901105207 | 11 | 180 | 0.0 | 3.2 | 0.00 | 0.00 | 0.00 | 92 | 1020.5 |
| 20260901104209 | 11 | 180 | 0.0 | 6.4 | 0.00 | 0.00 | 0.00 | 91 | 1020.5 |
| 20260901102209 | 11 | 180 | 0.0 | 0.0 | 0.00 | 0.00 | 0.00 | 91 | 1020.3 |
| 20260901095407 | 11 | 180 | 0.0 | 0.0 | 0.00 | 0.00 | 0.00 | 90 | 1020.3 |
| 20260901094409 | 11 | 180 | 0.0 | 0.0 | 0.00 | 0.00 | 0.00 | 90 | 1020.3 |
| 20260901093409 | 11 | 180 | 0.0 | 0.0 | 0.00 | 0.00 | 0.00 | 90 | 1020.3 |
| 20260901092508 | 11 | 180 | 0.0 | 0.0 | 0.00 | 0.00 | 0.00 | 90 | 1020.5 |
| 20260901091526 | 11 | 180 | 1.6 | 3.2 | 0.00 | 0.00 | 0.00 | 90 | 1020.3 |
| 20260901085610 | 11 | 225 | 0.0 | 0.0 | 0.00 | 0.00 | 0.00 | 90 | 1020.4 |
| 20260901084706 | 11 | 225 | 0.0 | 0.0 | 0.00 | 0.00 | 0.00 | 89 | 1020.3 |
| 20260901083707 | 11 | 225 | 0.0 | 0.0 | 0.00 | 0.00 | 0.00 | 89 | 1020.4 |
| 20260901082710 | 11 | 225 | 0.0 | 0.0 | 0.00 | 0.00 | 0.00 | 90 | 1020.4 |
| 20260901081808 | 11 | 225 | 0.0 | 0.0 | 0.00 | 0.00 | 0.00 | 90 | 1020.5 |
| 20260901080809 | 11 | 225 | 0.0 | 0.0 | 0.00 | 0.00 | 0.00 | 90 | 1020.5 |
| 20260901075908 | 11 | 225 | 0.0 | 0.0 | 0.00 | 0.00 | 0.00 | 90 | 1020.7 |
| 20260901074909 | 11 | 225 | 0.0 | 0.0 | 0.00 | 0.00 | 0.00 | 89 | 1020.5 |
| 20260901073906 | 11 | 225 | 0.0 | 0.0 | 0.00 | 0.00 | 0.00 | 89 | 1020.5 |
| 20260901072909 | 11 | 225 | 0.0 | 0.0 | 0.00 | 0.00 | 0.00 | 89 | 1020.3 |
| 20260901072008 | 11 | 225 | 0.0 | 0.0 | 0.00 | 0.00 | 0.00 | 88 | 1020.6 |
| 20260901071010 | 11 | 225 | 0.0 | 0.0 | 0.00 | 0.00 | 0.00 | 88 | 1020.5 |
| 20260901070007 | 11 | 180 | 0.0 | 0.0 | 0.00 | 0.00 | 0.00 | 88 | 1020.5 |
| 20260901064008 | 11 | 180 | 0.0 | 0.0 | 0.00 | 0.00 | 0.00 | 89 | 1020.5 |
| 20260901063009 | 11 | 180 | 0.0 | 0.0 | 0.00 | 0.00 | 0.00 | 87 | 1020.4 |
| 20260901061108 | 11 | 180 | 0.0 | 0.0 | 0.00 | 0.00 | 0.00 | 87 | 1020.5 |